TimeCDT,TemperatureF,Dew PointF,Humidity,Sea Level PressureIn,VisibilityMPH,Wind Direction,Wind SpeedMPH,Gust SpeedMPH,PrecipitationIn,Events,Conditions,WindDirDegrees,DateUTC
12:21 AM,69.8,62.6,78,29.74,9.0,South,8.1,-,N/A,,Overcast,170,2013-03-18 05:21:00
12:53 AM,68.0,63.0,84,29.74,8.0,South,5.8,-,N/A,,Overcast,180,2013-03-18 05:53:00
1:53 AM,66.9,62.1,84,29.74,7.0,South,4.6,-,N/A,,Mostly Cloudy,170,2013-03-18 06:53:00
2:04 AM,66.2,62.6,88,29.76,7.0,South,4.6,-,N/A,,Scattered Clouds,170,2013-03-18 07:04:00
2:53 AM,64.0,61.0,90,29.73,4.0,South,4.6,-,N/A,,Partly Cloudy,170,2013-03-18 07:53:00
3:04 AM,64.4,60.8,88,29.74,4.0,SSE,4.6,-,N/A,,Mostly Cloudy,160,2013-03-18 08:04:00
3:12 AM,66.2,62.6,88,29.74,4.0,SSE,4.6,-,N/A,,Mostly Cloudy,160,2013-03-18 08:12:00
3:53 AM,66.9,63.0,87,29.74,5.0,South,6.9,-,N/A,,Overcast,180,2013-03-18 08:53:00
4:21 AM,66.2,62.6,88,29.76,6.0,South,4.6,-,N/A,,Overcast,190,2013-03-18 09:21:00
4:53 AM,66.9,63.0,87,29.76,6.0,Calm,Calm,-,N/A,,Overcast,0,2013-03-18 09:53:00
5:53 AM,66.2,62.6,88,29.77,6.0,South,3.5,-,N/A,,Overcast,170,2013-03-18 10:53:00
6:53 AM,68.0,63.0,84,29.77,6.0,South,8.1,-,N/A,,Haze,170,2013-03-18 11:53:00
7:53 AM,69.1,63.0,81,29.79,6.0,South,5.8,-,N/A,,Haze,190,2013-03-18 12:53:00
8:53 AM,70.0,63.0,78,29.80,6.0,South,5.8,-,N/A,,Haze,190,2013-03-18 13:53:00
9:27 AM,71.6,62.6,73,29.80,6.0,South,10.4,-,N/A,,Haze,180,2013-03-18 14:27:00
9:53 AM,73.0,63.0,71,29.79,6.0,South,11.5,19.6,N/A,,Haze,180,2013-03-18 14:53:00
10:23 AM,75.2,62.6,65,29.80,6.0,SSW,16.1,-,N/A,,Haze,200,2013-03-18 15:23:00
10:53 AM,77.0,62.1,60,29.79,6.0,SSW,15.0,-,N/A,,Haze,210,2013-03-18 15:53:00
11:53 AM,80.1,63.0,56,29.81,8.0,WSW,13.8,17.3,N/A,,Overcast,250,2013-03-18 16:53:00
12:30 PM,80.6,62.6,54,29.82,9.0,SSW,8.1,16.1,N/A,,Overcast,200,2013-03-18 17:30:00
12:53 PM,82.0,62.1,51,29.80,10.0,SW,8.1,16.1,N/A,,Overcast,230,2013-03-18 17:53:00
1:53 PM,84.0,62.1,47,29.78,10.0,Variable,3.5,-,N/A,,Overcast,0,2013-03-18 18:53:00
2:53 PM,84.9,61.0,44,29.75,10.0,West,11.5,-,N/A,,Overcast,280,2013-03-18 19:53:00
3:53 PM,86.0,60.1,41,29.74,10.0,Variable,4.6,-,N/A,,Mostly Cloudy,0,2013-03-18 20:53:00
4:53 PM,87.1,59.0,39,29.75,10.0,Variable,5.8,-,N/A,,Mostly Cloudy,0,2013-03-18 21:53:00
5:53 PM,84.9,57.0,38,29.75,10.0,NNW,5.8,-,N/A,,Clear,340,2013-03-18 22:53:00
6:53 PM,82.0,57.9,44,29.78,10.0,NW,3.5,-,N/A,,Partly Cloudy,310,2013-03-18 23:53:00
7:53 PM,77.0,57.9,52,29.83,10.0,NNW,8.1,19.6,N/A,,Overcast,330,2013-03-19 00:53:00
8:53 PM,73.9,55.9,53,29.87,10.0,North,16.1,23.0,N/A,,Overcast,360,2013-03-19 01:53:00
9:53 PM,71.1,52.0,51,29.91,10.0,North,9.2,18.4,N/A,,Clear,10,2013-03-19 02:53:00
10:53 PM,66.9,50.0,54,29.94,10.0,North,3.5,-,N/A,,Clear,10,2013-03-19 03:53:00
11:53 PM,64.9,48.0,54,29.95,10.0,North,6.9,-,N/A,,Clear,350,2013-03-19 04:53:00